Flag for India Weather past 2 weeks in Nagaur, Rajasthan, India

Now
88 °F

Clear.


Feels Like: 85 °F
Forecast: 71 / 94 °F
Wind: 1 mph from North

Location: Jaipur / Sanganer

Current Time: Oct 20, 2014 at 6:55:44 PM

Latest Report: Oct 20, 2014 at 6:00 PM


Visibility: 1 mi

Pressure: 29.95 "Hg

Humidity: 24%

Dew point: 46 °F

Location of NagaurLocation

Historic Weather in Nagaur — Graph

°F

Nagaur temperature yesterday

Maximum temperature yesterday: 90 °F (at 3:00 PM)
Minimum temperature yesterday: 68 °F (at 2:00 AM)
Average temperature yesterday: 78 °F

Past Weeks' High & Low Weather Summary

 TemperatureHumidityPressure
High97 °F (Oct 5, 5:00 PM)94% (Oct 16, 5:00 AM)30.07 "Hg (Oct 16, 5:00 AM)
Low64 °F (Oct 18, 6:00 AM)13% (Oct 11, 4:00 PM)29.65 "Hg (Oct 11, 3:00 PM)
Average81 °F48%29.92 "Hg
* Reported Oct 5 5:00 PM — Oct 20 5:00 PM, Nagaur, Weather by CustomWeather, © 2014

Note: Actual official high and low records may vary slightly from our data, if they occured in-between our weather recording intervals... More about our weather records

Advertising

Nagaur weather history for previous 24 hours

 ConditionsComfort  
Time TempWeatherWind HumidityBarometerVisibility
5:00 PM
Oct 20
90 °FClear.5 mph21%29.95 "Hg1 mi
2:00 PM91 °FClear.6 mph20%29.95 "Hg1 mi
1:00 PM91 °FClear.5 mph18%29.98 "Hg1 mi
12:00 PM90 °FClear.5 mph22%30.07 "Hg1 mi
11:00 AM88 °FClear.3 mph27%30.04 "Hg1 mi
8:00 AM73 °FClear.No wind61%30.01 "Hg1 mi
7:00 AM68 °FHaze.No wind56%30.01 "Hg1 mi
6:00 AM66 °FClear.No wind60%29.98 "Hg1 mi
5:00 AM66 °FClear.No wind60%29.95 "Hg1 mi
4:00 AM66 °FClear.2 mph60%29.95 "Hg1 mi
3:00 AM68 °FClear.No wind56%29.95 "Hg1 mi
2:00 AM70 °FClear.No wind53%29.95 "Hg1 mi
1:00 AM70 °FClear.No wind53%29.98 "Hg1 mi
12:00 AM72 °FHaze.No wind50%29.98 "Hg1 mi
11:00 PM
Oct 19
72 °FClear.No wind50%29.98 "Hg1 mi
10:00 PM73 °FClear.3 mph47%29.98 "Hg1 mi
7:00 PM79 °FClear.No wind34%29.95 "Hg1 mi
6:00 PM84 °FClear.2 mph23%29.92 "Hg1 mi
Weather by CustomWeather, © 2014

See weather overviewHow to use our weather pages